Terminal Aerodrome Forecast
Issued by NWS

Home | Current Version | Previous Version | Text Only | Print | Product List | Glossary On
Versions: 1 2 3 4 5 6 7 8 9 10 11 12 13 14 15 16 17 18 19 20 21 22 23 24 25 26 27 28 29 30 31 32 33 34 35 36 37 38 39 40 41 42 43 44 45 46 47 48 49 50
000
FTAK31 PANC 072123 AAB
TAFACV
TAF AMD
PACV 072123Z 0721/0818 VRB03KT 6SM -SHRA OVC035
      TEMPO 0721/0724 2SM -SHRASN BKN028
     FM080000 22008KT P6SM -SHRA BKN025
     FM080600 VRB03KT P6SM VCSH BKN012 BKN025=

USA.gov is the U.S. government's official web portal to all federal, state and local government web resources and services.